This demonstration page uses our WeatherBlox Daily Observations layout. Learn more.

Left ArrowRight Arrow

41.55636, -103.73856

Hourly Observations for December 10, 2020

Temp ( °F °C ) Dew Point ( °F °C ) Humidity (%) Winds ( mph kmh ) Pressure ( in mb ) Visibility ( mi km ) Precip ( " mm )
12:58 am 00:58 Clear 38 3.6 -4 -20 16 16 SW 3 6 29.92 1013 10 16 0.00 0.00
1:58 am 01:58 Clear 40 4.2 -5 -20.3 15 15 Calm 29.95 1014 10 16 0.00 0.00
2:58 am 02:58 Clear 32 0 -2 -18.8 23 23 SSW 5 7 29.99 1016 10 16 0.00 0.00
3:58 am 03:58 Clear 31 -0.3 7 -13.9 35 35 W 8 13 30.03 1017 10 16 0.00 0.00
4:58 am 04:58 Clear 29 -1.8 12 -10.9 50 50 W 7 11 30.08 1019 10 16 0.00 0.00
5:58 am 05:58 Clear 28 -2.1 14 -10 55 55 WSW 8 13 30.10 1019 10 16 0.00 0.00
6:58 am 06:58 Mostly Clear 25 -3.7 16 -8.7 69 69 W 8 13 30.12 1020 10 16 0.00 0.00
7:58 am 07:58 Sunny 28 -2.5 20 -6.9 72 72 Calm 30.13 1020 10 16 0.00 0.00
8:56 am 08:56 Sunny 31 -0.8 23 -5.1 73 73 NNW 3 6 30.16 1022 10 16 0.00 0.00
9:56 am 09:56 Mostly Cloudy 33 0.4 25 -4.1 72 72 NNE 15 24 30.15 1021 10 16 0.00 0.00
10:56 am 10:56 Cloudy 31 -0.6 25 -4.1 77 77 NNE 13 20 30.15 1021 10 16 0.00 0.00
11:56 am 11:56 Cloudy 31 -0.7 25 -3.9 79 79 N 13 20 30.13 1020 10 16 0.00 0.00
12:56 pm 12:56 Cloudy 31 -0.7 25 -3.9 79 79 N 12 19 30.11 1020 10 16 0.00 0.00
1:56 pm 13:56 Cloudy 31 -0.7 25 -3.9 79 79 NNE 14 22 30.08 1019 10 16 0.00 0.00
2:58 pm 14:58 Cloudy 30 -0.9 25 -3.9 80 80 NNE 15 24 30.09 1019 10 16 0.00 0.00
3:58 pm 15:58 Cloudy 30 -1 25 -4 80 80 NE 12 19 30.11 1020 10 16 0.00 0.00
4:58 pm 16:58 Cloudy 29 -1.4 24 -4.2 81 81 NNE 10 17 30.14 1021 10 16 0.00 0.00
5:58 pm 17:58 Cloudy 29 -1.5 24 -4.4 81 81 NE 10 17 30.14 1021 10 16 0.00 0.00
6:58 pm 18:58 Mostly Cloudy 29 -1.7 23 -4.9 79 79 NE 10 17 30.15 1021 10 16 0.00 0.00
7:58 pm 19:58 Cloudy 28 -2 23 -5.1 80 80 NE 13 20 30.15 1021 10 16 0.00 0.00
8:58 pm 20:58 Cloudy 28 -2.2 23 -5 81 81 NE 6 9 30.23 1024 10 16 0.00 0.00
9:58 pm 21:58 Cloudy 27 -2.6 22 -5.4 81 81 NE 5 7 30.24 1024 10 16 0.00 0.00
10:58 pm 22:58 Mostly Cloudy 26 -3.5 22 -5.8 84 84 NE 7 11 30.25 1024 10 16 0.00 0.00
11:58 pm 23:58 Mostly Cloudy 25 -3.9 21 -6.2 84 84 NE 9 15 30.24 1024 10 16 0.00 0.00

Powered by AerisWeather